Find Starlink 3703

NORAD ID: 52101 Int'l Des: 2022-029 Owner: SPXS Country: US Constellation: starlink operational
LEOCIRCULAR

現在のビュー

3D地球を読み込み中...

About Starlink 3703

Starlink 3703 (NORAD 52101) is a starlink constellation satellite (v1.5) launched Mar 19, 2022 by SPXS of US. It operates in LEO, CIRCULAR orbit with a mass of 297.00 kg.

Starlink 3703について

説明を読み込み中...

次回通過

Passes for default location (London). Set your location on the main map for personalized predictions.

高度履歴

Loading altitude history...

軌道要素

1 52101U 22029P 26173.73006018 -.00000151 00000-0 86237-5 0 9997
2 52101 53.1599 337.6375 0001167 88.4713 271.6412 15.08837820236504
Epoch: Jun 22, 2026 • Age: 13 hours

現在のステータス

高度 539.7 km
速度 7.59 km/s
衛星直下点 13.23°N, 129.16°E
打ち上げ日 Mar 19, 2022
運用期間 4.2 years
タイプ internet

技術仕様

分類 Payload
質量 297.00 kg
乾燥質量 275.00 kg
総質量 297.00 kg
長さ 0.20 m
直径 2.80 m
スパン 9.00 m
形状 Box + pan
製造者 SPXS
バスタイプ Starlink
フェーズステータス In Orbit
所有者/国 SPXS/US

Most Searched